"SCET";"TARGET";"ELECTRON_DENSITY";"ERROR_FLAG";"ELECTRON_DENSITY_ERROR";"FREQ_FCE";"MEASURED_VALUE";"MEASURED_ITEM";"FREQ_PLASMA";"FREQ_UPPER_HYBRID";"FREQ_R_EQUALS_ZERO";"FREQ_L_EQUALS_ZERO";"ORBIT_NUMBER";"SATURN_RADIUS";"SATURN_IAU_LONGITUDE";"SATURN_SLS4_S_LONGITUDE";"SATURN_SLS4_N_LONGITUDE";"SATURN_SLS5_S_LONGITUDE";"SATURN_SLS5_N_LONGITUDE";"SATURN_LOCAL_TIME";"SATURN_KRONOGRAPHIC_LATITUDE";"SATURN_MAGNETIC_LATITUDE";"SATURN_L";"SATURN_L_OFFSET";"SATURN_SOLAR_EQUATORIAL_X";"SATURN_SOLAR_EQUATORIAL_Y";"SATURN_SOLAR_EQUATORIAL_Z";"SATURN_ALTITUDE";"ENCELADUS_ENCOUNTER_NUMBER";"ENCELADUS_RADIUS";"ENCELADUS_COROTATIONAL_X";"ENCELADUS_COROTATIONAL_Y";"ENCELADUS_COROTATIONAL_Z";"ENCELADUS_TRUE_ANOMALY";"ENCELADUS_PERIAPSIS_TIME";"JUPITER_RADIUS";"JUPITER_SYSTEMIII_LONGITUDE";"JUPITER_MAGNETIC_LATITUDE";"JUPITER_MAGNETIC_LOCAL_TIME";"JUPITER_L";"IO_PHASE";"EARTH_RADIUS";"EARTH_MAGNETIC_LATITUDE";"EARTH_LOCAL_TIME";"EARTH_L"
"[UTC]";"[0=Saturn, 1=Enceladus, 2=Jupiter, 3=Earth]";"[cm-3]";"[0=automated, 1=manual]";"[normalized density error]";"[Hz]";"[Hz]";"[0=upper hybrid frequency, 1=plasma frequency cutoff]";"[Hz]";"[Hz]";"[Hz]";"[Hz}";"[0, A, B, C, 3, 4, ... , 292, 293]";"[Rs where 1Rs=60268km]";"[degrees]";"[degrees]";"[degrees]";"[degrees]";"[degrees]";"[hours]";"[degrees]";"[degrees where offset=2293km north]";"[Rs where 1Rs=60268km]";"[Rs where 1Rs=60268km and offset=2293km north]";"[Rs where 1Rs=60268km]";"[Rs where 1Rs=60268km]";"[Rs where 1Rs=60268km]";"[km where ellipsoid a,b=60268km and c=54364km]";"[E0, E1, E2, ... , E21, E22]";"[Renc where 1Renc=252.1km]";"[Renc where 1Renc=252.1km]";"[Renc where 1Renc=252.1km]";"[Renc where 1Renc=252.1km]";"[degrees]";"[UTC]";"[Rj where 1Rj=71492km]";"[degrees]";"[degrees using JRM09 model]";"[hours using JRM09 model]";"[Rj where 1Rj=71492km]";"[degrees]";"[Re where 1Re=6378.1366km]";"[degrees]";"[hours]";"[Re where 1Re=6378.1366km]"
2006-12-05T00:15:50.400Z;0;3.4970e-04;1;     1.728;   274.315;    167.923; 1;    167.923;    321.632;    353.976;     79.661; 34;  19.580;  40.732; 216.085; 242.752; 222.294; 256.887;  22.521;  48.920;  48.847;  45.345;  19.535; -11.914;   4.859;  14.759;;;;;;;;;;;;;;;;;;
2006-12-05T00:33:00.000Z;0;7.7850e-05;1;     2.481;   273.434;     79.231; 1;     79.231;    284.682;    294.733;     21.299; 34;  19.642;  50.154; 225.361; 252.243; 231.591; 266.421;  22.537;  48.831;  48.758;  45.329;  19.598; -11.993;   4.833;  14.786;;;;;;;;;;;;;;;;;;
2006-12-05T00:45:00.000Z;0;7.7850e-05;1;     2.481;   272.699;     79.231; 1;     79.231;    283.976;    294.048;     21.349; 34;  19.686;  56.745; 231.848; 258.881; 238.015; 273.002;  22.548;  48.770;  48.696;  45.317;  19.641; -12.049;   4.815;  14.805;;;;;;;;;;;;;;;;;;
2006-12-05T00:54:00.000Z;0;5.9440e-05;1;     2.409;   272.097;     69.231; 1;     69.231;    280.766;    288.699;     16.602; 34;  19.718;  61.688; 236.715; 263.860; 242.869; 278.021;  22.556;  48.723;  48.650;  45.309;  19.674; -12.090;   4.801;  14.819;;;;;;;;;;;;;;;;;;
2006-12-05T01:06:00.000Z;0;7.7850e-05;1;     2.481;   271.688;     79.231; 1;     79.231;    283.005;    293.105;     21.417; 34;  19.762;  68.280; 243.204; 270.500; 249.389; 284.697;  22.567;  48.661;  48.588;  45.297;  19.717; -12.145;   4.783;  14.838;;;;;;;;;;;;;;;;;;
2006-12-05T01:21:00.000Z;0;9.8740e-05;1;     2.604;   271.001;     89.231; 1;     89.231;    285.314;    297.743;     26.742; 34;  19.816;  76.522; 251.318; 278.802; 257.528; 292.939;  22.581;  48.584;  48.511;  45.282;  19.771; -12.214;   4.760;  14.861;;;;;;;;;;;;;;;;;;
2006-12-05T01:30:00.000Z;0;7.7850e-05;1;     2.481;   270.473;     79.231; 1;     79.231;    281.839;    291.973;     21.500; 34;  19.848;  81.468; 256.187; 283.784; 262.353; 297.953;  22.589;  48.538;  48.465;  45.273;  19.804; -12.255;   4.746;  14.874;;;;;;;;;;;;;;;;;;
2006-12-05T01:54:00.000Z;0;5.6820e-05;1;     2.465;   267.589;     67.692; 1;     67.692;    276.018;    283.738;     16.149; 34;  19.934;  94.661; 269.174; 297.072; 275.361; 311.201;  22.610;  48.414;  48.342;  45.248;  19.889; -12.365;   4.709;  14.910;;;;;;;;;;;;;;;;;;
2006-12-05T02:12:00.000Z;0;7.6340e-05;1;     2.505;   266.763;     78.462; 1;     78.462;    278.063;    288.129;     21.366; 34;  19.998; 104.558; 278.917; 307.041; 285.095; 321.235;  22.626;  48.322;  48.249;  45.229;  19.953; -12.446;   4.681;  14.936;;;;;;;;;;;;;;;;;;
2006-12-05T02:36:00.000Z;0;7.7850e-05;1;     2.481;   266.161;     79.231; 1;     79.231;    277.703;    287.961;     21.800; 34;  20.083; 117.757; 291.912; 320.337; 298.095; 334.491;  22.647;  48.199;  48.127;  45.202;  20.038; -12.555;   4.644;  14.971;;;;;;;;;;;;;;;;;;
2006-12-05T02:54:00.000Z;0;7.7850e-05;1;     2.481;   265.367;     79.231; 1;     79.231;    276.942;    287.223;     21.856; 34;  20.146; 127.660; 301.660; 330.311; 307.863; 344.503;  22.662;  48.107;  48.034;  45.182;  20.101; -12.636;   4.616;  14.997;;;;;;;;;;;;;;;;;;
2006-12-05T03:06:00.000Z;0;5.9440e-05;1;     2.409;   265.142;     69.231; 1;     69.231;    274.032;    282.131;     16.988; 34;  20.188; 134.263; 308.160; 336.962; 314.346; 351.106;  22.672;  48.045;  47.973;  45.169;  20.143; -12.690;   4.597;  15.013;;;;;;;;;;;;;;;;;;
2006-12-05T03:21:00.000Z;0;5.9440e-05;1;     2.409;   264.712;     69.231; 1;     69.231;    273.615;    281.725;     17.013; 34;  20.240; 142.518; 316.287; 345.277; 322.457; 359.472;  22.685;  47.969;  47.897;  45.151;  20.196; -12.757;   4.574;  15.034;;;;;;;;;;;;;;;;;;
2006-12-05T03:24:00.000Z;0;7.7850e-05;1;     2.481;   265.017;     79.231; 1;     79.231;    276.607;    286.897;     21.881; 34;  20.251; 144.169; 317.913; 346.940; 324.070;   1.123;  22.688;  47.953;  47.881;  45.148;  20.206; -12.770;   4.569;  15.038;;;;;;;;;;;;;;;;;;
2006-12-05T03:36:00.000Z;0;7.7850e-05;1;     2.481;   263.921;     79.231; 1;     79.231;    275.557;    285.880;     21.959; 34;  20.292; 150.774; 324.416; 353.594; 330.567;   7.728;  22.698;  47.892;  47.820;  45.134;  20.248; -12.824;   4.550;  15.055;;;;;;;;;;;;;;;;;;
2006-12-05T03:57:00.000Z;0;7.7850e-05;1;     2.481;   261.828;     79.231; 1;     79.231;    273.553;    283.937;     22.109; 34;  20.365; 162.336; 335.798;   5.239; 341.967;  19.447;  22.715;  47.785;  47.713;  45.109;  20.320; -12.917;   4.517;  15.083;;;;;;;;;;;;;;;;;;
2006-12-05T04:06:00.000Z;0;7.7850e-05;1;     2.481;   260.876;     79.231; 1;     79.231;    272.642;    283.054;     22.178; 34;  20.396; 167.292; 340.677;  10.231; 346.858;  24.418;  22.722;  47.739;  47.667;  45.098;  20.351; -12.957;   4.503;  15.095;;;;;;;;;;;;;;;;;;
2006-12-05T04:24:00.000Z;0;5.9440e-05;1;     2.409;   258.881;     69.231; 1;     69.231;    267.978;    276.232;     17.351; 34;  20.458; 177.206; 350.436;  20.217; 356.637;  34.405;  22.737;  47.648;  47.576;  45.076;  20.413; -13.036;   4.474;  15.119;;;;;;;;;;;;;;;;;;
2006-12-05T04:36:00.000Z;0;5.8120e-05;1;     2.437;   257.296;     68.462; 1;     68.462;    266.248;    274.378;     17.082; 34;  20.499; 183.816; 356.944;  26.875;   3.128;  41.051;  22.747;  47.587;  47.515;  45.061;  20.454; -13.089;   4.455;  15.134;;;;;;;;;;;;;;;;;;
2006-12-05T04:53:45.600Z;0;5.0800e-04;1;     1.514;   255.275;    202.396; 1;    202.396;    325.775;    366.918;    111.644; 34;  20.559; 193.601;   6.577;  36.730;  12.733;  50.908;  22.761;  47.497;  47.425;  45.039;  20.515; -13.167;   4.426;  15.157;;;;;;;;;;;;;;;;;;
2006-12-05T05:27:00.000Z;0;5.9440e-05;1;     2.409;   251.279;     69.231; 1;     69.231;    260.642;    269.091;     17.812; 34;  20.672; 211.919;  24.611;  55.182;  30.778;  69.348;  22.788;  47.328;  47.257;  44.997;  20.627; -13.312;   4.373;  15.199;;;;;;;;;;;;;;;;;;
2006-12-05T05:42:00.000Z;0;5.9440e-05;1;     2.409;   249.357;     69.231; 1;     69.231;    258.790;    267.289;     17.932; 34;  20.722; 220.188;  32.752;  63.511;  38.904;  77.720;  22.799;  47.252;  47.181;  44.977;  20.677; -13.377;   4.349;  15.217;;;;;;;;;;;;;;;;;;
2006-12-05T06:03:00.000Z;0;5.9440e-05;1;     2.409;   246.768;     69.231; 1;     69.231;    256.295;    264.863;     18.096; 34;  20.792; 231.767;  44.151;  75.173;  50.297;  89.357;  22.816;  47.146;  47.075;  44.950;  20.747; -13.468;   4.315;  15.243;;;;;;;;;;;;;;;;;;
2006-12-05T06:21:00.000Z;0;7.9360e-05;1;     2.457;   243.803;     80.000; 1;     80.000;    256.593;    267.710;     23.907; 34;  20.852; 241.693;  53.923;  85.172;  60.094;  99.305;  22.830;  47.056;  46.985;  44.926;  20.807; -13.545;   4.285;  15.264;;;;;;;;;;;;;;;;;;
2006-12-05T06:42:00.000Z;0;1.0570e-04;1;     2.516;   240.968;     92.308; 1;     92.308;    258.043;    272.264;     31.296; 34;  20.922; 253.277;  65.327;  96.839;  71.508; 111.040;  22.846;  46.950;  46.879;  44.898;  20.877; -13.635;   4.251;  15.289;;;;;;;;;;;;;;;;;;
2006-12-05T07:27:00.000Z;0;1.0570e-04;1;     2.516;   235.718;     92.308; 1;     92.308;    253.148;    267.564;     31.846; 34;  21.070; 278.107;  89.772; 121.849;  95.954; 136.024;  22.879;  46.725;  46.654;  44.837;  21.024; -13.826;   4.177;  15.340;;;;;;;;;;;;;;;;;;
2006-12-05T07:30:00.000Z;0;5.9440e-05;1;     2.409;   235.186;     69.231; 1;     69.231;    245.164;    254.052;     18.866; 34;  21.079; 279.762;  91.402; 123.516;  97.561; 137.661;  22.882;  46.710;  46.639;  44.832;  21.034; -13.839;   4.172;  15.343;;;;;;;;;;;;;;;;;;
2006-12-05T07:42:00.000Z;0;7.7850e-05;1;     2.481;   233.485;     79.231; 1;     79.231;    246.562;    257.832;     24.347; 34;  21.118; 286.386;  97.923; 130.188; 104.040; 144.368;  22.890;  46.650;  46.579;  44.816;  21.073; -13.890;   4.152;  15.357;;;;;;;;;;;;;;;;;;
2006-12-05T07:54:00.000Z;0;1.0570e-04;1;     2.516;   231.924;     92.308; 1;     92.308;    249.619;    264.178;     32.254; 34;  21.157; 293.010; 104.445; 136.860; 110.608; 151.076;  22.899;  46.590;  46.519;  44.799;  21.112; -13.940;   4.132;  15.370;;;;;;;;;;;;;;;;;;
2006-12-05T08:15:00.000Z;0;5.9440e-05;1;     2.409;   229.159;     69.231; 1;     69.231;    239.388;    248.450;     19.291; 34;  21.225; 304.604; 115.859; 148.538; 122.029; 162.704;  22.914;  46.485;  46.414;  44.770;  21.180; -14.029;   4.098;  15.392;;;;;;;;;;;;;;;;;;
2006-12-05T08:33:00.000Z;0;5.8120e-05;1;     2.437;   227.237;     68.462; 1;     68.462;    237.327;    246.270;     19.032; 34;  21.283; 314.544; 125.645; 158.550; 131.833; 172.763;  22.927;  46.395;  46.325;  44.744;  21.238; -14.104;   4.068;  15.411;;;;;;;;;;;;;;;;;;
2006-12-05T08:48:00.000Z;0;1.0570e-04;1;     2.516;   225.526;     92.308; 1;     92.308;    243.686;    258.490;     32.964; 34;  21.331; 322.829; 133.801; 166.894; 139.911; 181.063;  22.938;  46.321;  46.250;  44.723;  21.286; -14.166;   4.043;  15.427;;;;;;;;;;;;;;;;;;
2006-12-05T09:00:00.000Z;0;5.8120e-05;1;     2.437;   224.458;     68.462; 1;     68.462;    234.667;    243.692;     19.233; 34;  21.369; 329.457; 140.327; 173.571; 146.484; 187.784;  22.947;  46.261;  46.191;  44.706;  21.324; -14.216;   4.023;  15.439;;;;;;;;;;;;;;;;;;
2006-12-05T09:27:00.000Z;0;5.8120e-05;1;     2.437;   222.324;     68.462; 1;     68.462;    232.626;    241.714;     19.391; 34;  21.455; 344.374; 155.013; 188.595; 161.159; 202.789;  22.966;  46.128;  46.057;  44.667;  21.410; -14.328;   3.977;  15.466;;;;;;;;;;;;;;;;;;
2006-12-05T09:45:00.000Z;0;1.3770e-04;1;     2.499;   221.445;    105.385; 1;    105.385;    245.243;    263.580;     42.135; 34;  21.511; 354.320; 164.805; 198.613; 170.973; 212.823;  22.978;  46.039;  45.968;  44.641;  21.466; -14.402;   3.947;  15.484;;;;;;;;;;;;;;;;;;
2006-12-05T10:00:00.000Z;0;6.2140e-04;1;     1.346;   220.378;    223.846; 1;    223.846;    314.123;    359.685;    139.308; 34;  21.559;   2.610; 172.967; 206.963; 179.155; 221.155;  22.989;  45.965;  45.894;  44.619;  21.513; -14.463;   3.922;  15.499;;;;;;;;;;;;;;;;;;
2006-12-05T10:12:00.000Z;0;1.4180e-04;1;     2.463;   219.765;    106.923; 1;    106.923;    244.396;    263.201;     43.436; 34;  21.596;   9.243; 179.497; 213.644; 185.632; 227.860;  22.997;  45.906;  45.835;  44.602;  21.551; -14.512;   3.901;  15.510;;;;;;;;;;;;;;;;;;
2006-12-05T10:24:00.000Z;0;5.9440e-05;1;     2.409;   219.016;     69.231; 1;     69.231;    229.697;    239.065;     20.049; 34;  21.633;  15.876; 186.028; 220.325; 192.137; 234.477;  23.005;  45.847;  45.776;  44.584;  21.588; -14.561;   3.881;  15.522;;;;;;;;;;;;;;;;;;
2006-12-05T10:36:00.000Z;0;1.0390e-04;1;     2.539;   218.498;     91.538; 1;     91.538;    236.898;    251.778;     33.280; 34;  21.671;  22.510; 192.559; 227.007; 198.699; 241.207;  23.013;  45.788;  45.717;  44.566;  21.625; -14.610;   3.861;  15.533;;;;;;;;;;;;;;;;;;
2006-12-05T10:48:00.000Z;0;1.0390e-04;1;     2.539;   217.760;     91.538; 1;     91.538;    236.217;    251.126;     33.367; 34;  21.708;  29.145; 199.091; 233.690; 205.237; 247.925;  23.021;  45.729;  45.658;  44.549;  21.663; -14.659;   3.840;  15.544;;;;;;;;;;;;;;;;;;
2006-12-05T11:00:00.000Z;0;1.0390e-04;1;     2.539;   217.340;     91.538; 1;     91.538;    235.830;    250.755;     33.416; 34;  21.745;  35.780; 205.624; 240.373; 211.745; 254.545;  23.029;  45.670;  45.600;  44.531;  21.700; -14.707;   3.820;  15.555;;;;;;;;;;;;;;;;;;
2006-12-05T11:21:00.000Z;0;8.0900e-05;1;     2.434;   216.797;     80.769; 1;     80.769;    231.354;    243.579;     26.782; 34;  21.809;  47.394; 217.058; 252.071; 223.185; 266.299;  23.043;  45.567;  45.497;  44.499;  21.764; -14.792;   3.784;  15.573;;;;;;;;;;;;;;;;;;
2006-12-05T11:33:00.000Z;0;7.9360e-05;1;     2.457;   217.350;     80.000; 1;     80.000;    231.605;    243.620;     26.270; 34;  21.846;  54.031; 223.593; 258.756; 229.685; 272.915;  23.051;  45.508;  45.438;  44.482;  21.801; -14.840;   3.764;  15.584;;;;;;;;;;;;;;;;;;
2006-12-05T11:45:00.000Z;0;7.7850e-05;1;     2.481;   217.438;     79.231; 1;     79.231;    231.423;    243.245;     25.808; 34;  21.883;  60.669; 230.128; 265.442; 236.260; 279.647;  23.059;  45.450;  45.380;  44.463;  21.837; -14.888;   3.743;  15.594;;;;;;;;;;;;;;;;;;
2006-12-05T12:06:00.000Z;0;5.9440e-05;1;     2.409;   217.725;     69.231; 1;     69.231;    228.466;    237.874;     20.149; 34;  21.946;  72.287; 241.566; 277.143; 247.704; 291.300;  23.073;  45.348;  45.278;  44.432;  21.901; -14.972;   3.707;  15.612;;;;;;;;;;;;;;;;;;
2006-12-05T12:21:00.000Z;0;5.8120e-05;1;     2.437;   217.955;     68.462; 1;     68.462;    228.455;    237.676;     19.720; 34;  21.992;  80.586; 249.738; 285.503; 255.901; 299.716;  23.083;  45.275;  45.205;  44.409;  21.946; -15.032;   3.681;  15.625;;;;;;;;;;;;;;;;;;
2006-12-05T12:33:00.000Z;0;1.0040e-04;1;     2.583;   217.469;     90.000; 1;     90.000;    235.357;    249.884;     32.415; 34;  22.028;  87.227; 256.276; 292.191; 262.400; 306.421;  23.090;  45.216;  45.147;  44.391;  21.982; -15.079;   3.661;  15.635;;;;;;;;;;;;;;;;;;
2006-12-05T12:48:00.000Z;0;1.0570e-04;1;     2.516;   217.725;     92.308; 1;     92.308;    236.484;    251.592;     33.867; 34;  22.073;  95.528; 264.449; 300.553; 270.594; 314.738;  23.100;  45.144;  45.074;  44.368;  22.027; -15.139;   3.635;  15.647;;;;;;;;;;;;;;;;;;
2006-12-05T13:00:00.000Z;0;6.0760e-05;1;     2.383;   217.294;     70.000; 1;     70.000;    228.291;    237.892;     20.598; 34;  22.109; 102.170; 270.988; 307.242; 277.072; 321.472;  23.107;  45.086;  45.016;  44.350;  22.063; -15.186;   3.614;  15.657;;;;;;;;;;;;;;;;;;
2006-12-05T13:21:00.000Z;0;5.9440e-05;1;     2.409;   217.819;     69.231; 1;     69.231;    228.556;    237.961;     20.142; 34;  22.171; 113.794; 282.433; 318.951; 288.529; 333.143;  23.121;  44.984;  44.914;  44.317;  22.126; -15.268;   3.578;  15.673;;;;;;;;;;;;;;;;;;
2006-12-05T13:36:00.000Z;0;7.7850e-05;1;     2.481;   217.689;     79.231; 1;     79.231;    231.660;    243.473;     25.783; 34;  22.215; 122.099; 290.609; 327.315; 296.744; 341.552;  23.130;  44.912;  44.842;  44.294;  22.170; -15.327;   3.552;  15.684;;;;;;;;;;;;;;;;;;
2006-12-05T13:54:00.000Z;0;7.7850e-05;1;     2.481;   216.842;     79.231; 1;     79.231;    230.864;    242.707;     25.865; 34;  22.268; 132.065; 300.422; 337.354; 306.576; 351.532;  23.141;  44.825;  44.756;  44.266;  22.223; -15.397;   3.521;  15.698;;;;;;;;;;;;;;;;;;
2006-12-05T14:03:00.000Z;0;6.0760e-05;1;     2.383;   216.937;     70.000; 1;     70.000;    227.951;    237.563;     20.626; 34;  22.295; 137.049; 305.328; 342.373; 311.431; 356.591;  23.147;  44.782;  44.712;  44.253;  22.249; -15.432;   3.505;  15.705;;;;;;;;;;;;;;;;;;
2006-12-05T14:21:00.000Z;0;5.9440e-05;1;     2.409;   216.111;     69.231; 1;     69.231;    226.929;    236.387;     20.276; 34;  22.347; 147.017; 315.143; 352.414; 321.269;   6.580;  23.158;  44.695;  44.626;  44.225;  22.302; -15.502;   3.473;  15.718;;;;;;;;;;;;;;;;;;
2006-12-05T14:36:00.000Z;0;1.0220e-04;1;     2.559;   215.477;     90.769; 1;     90.769;    233.815;    248.617;     33.139; 34;  22.391; 155.325; 323.323;   0.782; 329.426;  14.998;  23.167;  44.623;  44.554;  44.201;  22.346; -15.560;   3.447;  15.729;;;;;;;;;;;;;;;;;;
2006-12-05T14:42:00.000Z;0;7.7850e-05;1;     2.481;   214.889;     79.231; 1;     79.231;    229.031;    240.944;     26.054; 34;  22.409; 158.649; 326.595;   4.129; 332.731;  18.351;  23.171;  44.595;  44.525;  44.192;  22.363; -15.583;   3.437;  15.733;;;;;;;;;;;;;;;;;;
2006-12-05T14:54:00.000Z;0;7.6340e-05;1;     2.505;   213.238;     78.462; 1;     78.462;    227.215;    238.996;     25.759; 34;  22.443; 165.296; 333.140;  10.824; 339.242;  24.982;  23.178;  44.537;  44.468;  44.173;  22.398; -15.629;   3.416;  15.741;;;;;;;;;;;;;;;;;;
2006-12-05T15:09:00.000Z;0;5.9440e-05;1;     2.409;   212.314;     69.231; 1;     69.231;    223.316;    232.893;     20.580; 34;  22.487; 173.606; 341.321;  19.194; 347.433;  33.409;  23.187;  44.466;  44.396;  44.150;  22.441; -15.686;   3.390;  15.751;;;;;;;;;;;;;;;;;;
2006-12-05T15:24:00.000Z;0;5.8120e-05;1;     2.437;   211.089;     68.462; 1;     68.462;    221.913;    231.348;     20.260; 34;  22.530; 181.917; 349.504;  27.565; 355.572;  41.796;  23.196;  44.394;  44.325;  44.126;  22.484; -15.743;   3.363;  15.762;;;;;;;;;;;;;;;;;;
2006-12-05T15:39:00.000Z;0;5.8120e-05;1;     2.437;   209.685;     68.462; 1;     68.462;    220.578;    230.058;     20.373; 34;  22.573; 190.228; 357.687;  35.936;   3.766;  50.136;  23.205;  44.323;  44.254;  44.103;  22.527; -15.800;   3.337;  15.771;;;;;;;;;;;;;;;;;;
2006-12-05T15:54:00.000Z;0;5.9440e-05;1;     2.409;   207.609;     69.231; 1;     69.231;    218.848;    228.578;     20.968; 34;  22.615; 198.541;   5.871;  44.309;  11.989;  58.529;  23.214;  44.251;  44.182;  44.079;  22.570; -15.857;   3.310;  15.781;;;;;;;;;;;;;;;;;;
2006-12-05T16:09:00.000Z;0;5.5540e-05;1;     2.493;   205.741;     66.923; 1;     66.923;    216.351;    225.593;     19.853; 34;  22.658; 206.854;  14.056;  52.682;  20.181;  66.871;  23.223;  44.180;  44.111;  44.055;  22.612; -15.914;   3.284;  15.791;;;;;;;;;;;;;;;;;;
2006-12-05T16:18:00.000Z;0;4.4640e-05;1;     2.364;   205.447;     60.000; 1;     60.000;    214.029;    221.686;     16.239; 34;  22.683; 211.842;  18.968;  57.706;  25.075;  71.927;  23.228;  44.138;  44.069;  44.041;  22.638; -15.948;   3.268;  15.796;;;;;;;;;;;;;;;;;;
2006-12-05T16:24:00.000Z;0;5.5540e-05;1;     2.493;   204.638;     66.923; 1;     66.923;    215.303;    224.580;     19.942; 34;  22.700; 215.168;  22.242;  61.056;  28.342;  75.294;  23.231;  44.109;  44.040;  44.031;  22.654; -15.970;   3.258;  15.800;;;;;;;;;;;;;;;;;;
2006-12-05T16:36:00.000Z;0;4.5790e-05;1;     2.335;   203.308;     60.769; 1;     60.769;    212.196;    220.087;     16.779; 34;  22.734; 221.820;  28.791;  67.756;  34.922;  81.982;  23.238;  44.052;  43.983;  44.012;  22.688; -16.016;   3.236;  15.807;;;;;;;;;;;;;;;;;;
2006-12-05T16:45:00.000Z;0;5.9440e-05;1;     2.409;   202.045;     69.231; 1;     69.231;    213.576;    223.490;     21.446; 34;  22.759; 226.809;  33.704;  72.781;  39.782;  86.969;  23.244;  44.010;  43.941;  43.998;  22.713; -16.049;   3.220;  15.813;;;;;;;;;;;;;;;;;;
2006-12-05T16:57:00.000Z;0;5.8120e-05;1;     2.437;   200.344;     68.462; 1;     68.462;    211.718;    221.504;     21.160; 34;  22.793; 233.462;  40.254;  79.482;  46.338;  93.718;  23.250;  43.953;  43.884;  43.979;  22.747; -16.094;   3.199;  15.820;;;;;;;;;;;;;;;;;;
2006-12-05T17:09:00.000Z;0;5.6820e-05;1;     2.465;   198.877;     67.692; 1;     67.692;    210.082;    219.731;     20.854; 34;  22.826; 240.115;  46.804;  86.183;  52.880; 100.370;  23.257;  43.897;  43.828;  43.960;  22.781; -16.139;   3.178;  15.827;;;;;;;;;;;;;;;;;;
2006-12-05T17:27:00.000Z;0;4.4640e-05;1;     2.364;   197.096;     60.000; 1;     60.000;    206.026;    213.924;     16.828; 34;  22.876; 250.096;  56.631;  96.235;  62.732; 110.462;  23.268;  43.812;  43.743;  43.931;  22.830; -16.206;   3.146;  15.837;;;;;;;;;;;;;;;;;;
2006-12-05T17:51:00.000Z;0;7.7850e-05;1;     2.481;   194.222;     79.231; 1;     79.231;    209.761;    222.443;     28.221; 34;  22.942; 263.405;  69.736; 109.641;  75.818; 123.838;  23.281;  43.699;  43.630;  43.893;  22.897; -16.294;   3.103;  15.850;;;;;;;;;;;;;;;;;;
2006-12-05T18:00:00.000Z;0;7.6340e-05;1;     2.505;   193.070;     78.462; 1;     78.462;    208.405;    220.935;     27.865; 34;  22.967; 268.396;  74.650; 114.668;  80.693; 128.893;  23.286;  43.657;  43.588;  43.878;  22.921; -16.327;   3.087;  15.855;;;;;;;;;;;;;;;;;;
2006-12-05T18:09:00.000Z;0;7.4850e-05;1;     2.530;   192.406;     77.692; 1;     77.692;    207.499;    219.860;     27.454; 34;  22.992; 273.388;  79.565; 119.696;  85.653; 133.947;  23.291;  43.615;  43.546;  43.864;  22.946; -16.360;   3.071;  15.860;;;;;;;;;;;;;;;;;;
2006-12-05T18:24:00.000Z;0;4.3510e-05;1;     2.395;   191.436;     59.231; 1;     59.231;    200.390;    208.280;     16.844; 34;  23.033; 281.708;  87.757; 128.076;  93.820; 142.260;  23.300;  43.545;  43.476;  43.840;  22.987; -16.415;   3.044;  15.868;;;;;;;;;;;;;;;;;;
2006-12-05T18:36:00.000Z;0;4.2380e-05;1;     2.427;   190.246;     58.462; 1;     58.462;    199.026;    206.775;     16.529; 34;  23.066; 288.365;  94.311; 134.781; 100.405; 149.013;  23.306;  43.489;  43.420;  43.820;  23.020; -16.459;   3.023;  15.874;;;;;;;;;;;;;;;;;;
2006-12-05T18:51:00.000Z;0;5.6820e-05;1;     2.465;   187.960;     67.692; 1;     67.692;    199.778;    209.801;     21.841; 34;  23.106; 296.687; 102.505; 143.163; 108.624; 157.335;  23.314;  43.419;  43.350;  43.796;  23.060; -16.514;   2.996;  15.882;;;;;;;;;;;;;;;;;;
2006-12-05T19:06:00.000Z;0;5.8120e-05;1;     2.437;   186.284;     68.462; 1;     68.462;    198.466;    208.738;     22.454; 34;  23.147; 305.009; 110.699; 151.545; 116.794; 165.766;  23.323;  43.349;  43.280;  43.772;  23.101; -16.568;   2.969;  15.889;;;;;;;;;;;;;;;;;;
2006-12-05T19:21:00.000Z;0;4.5790e-05;1;     2.335;   184.964;     60.769; 1;     60.769;    194.691;    203.143;     18.179; 34;  23.187; 313.332; 118.893; 159.928; 124.974; 174.188;  23.331;  43.279;  43.211;  43.748;  23.141; -16.623;   2.942;  15.896;;;;;;;;;;;;;;;;;;
2006-12-05T19:42:00.000Z;0;4.4770e-04;1;     1.613;   184.695;    190.000; 1;    190.000;    264.976;    303.601;    118.906; 34;  23.243; 324.985; 130.367; 171.665; 136.462; 185.894;  23.342;  43.182;  43.113;  43.714;  23.197; -16.698;   2.905;  15.906;;;;;;;;;;;;;;;;;;
2006-12-05T19:48:00.000Z;0;4.4770e-04;1;     1.613;   183.572;    190.000; 1;    190.000;    264.194;    302.794;    119.223; 34;  23.259; 328.315; 133.646; 175.019; 139.713; 189.265;  23.345;  43.154;  43.085;  43.704;  23.213; -16.720;   2.894;  15.908;;;;;;;;;;;;;;;;;;
2006-12-05T19:57:00.000Z;0;1.8550e-04;1;     2.374;   182.987;    122.308; 1;    122.308;    220.099;    244.236;     61.249; 34;  23.283; 333.310; 138.564; 180.050; 144.643; 194.264;  23.350;  43.112;  43.044;  43.689;  23.237; -16.752;   2.878;  15.912;;;;;;;;;;;;;;;;;;